Regional Weather Roundup
Issued by NWS Boston, MA

Home | Current Version | Previous Version | Text Only | Print | Product List | Glossary On
Versions: 1 2 3 4 5 6 7 8 9 10 11 12 13 14 15 16 17 18 19 20 21 22 23 24 25 26 27 28
000
ASUS41 KBOX 232210
RWRBOX

REGIONAL WEATHER ROUNDUP
NATIONAL WEATHER SERVICE TAUNTON MA
600 PM EDT WED AUG 23 2017

NOTE:  "FAIR" INDICATES FEW OR NO CLOUDS BELOW 12,000 FEET WITH NO
SIGNIFICANT WEATHER AND/OR OBSTRUCTIONS TO VISIBILITY.

MAZALL-232300-
EASTERN MASSACHUSETTS

CITY           SKY/WX    TMP DP  RH WIND       PRES   REMARKS
BOSTON         PTSUNNY   81  51  35 W12       29.77R
BEVERLY        MOSUNNY   77  53  43 W10       29.76S
LAWRENCE       MOSUNNY   80  54  40 W13G20    29.79S
BEDFORD        SUNNY     77  51  40 W10       29.77S
BLUE HILL        N/A     76  52  43 W12G23    29.79R
NORWOOD        MOSUNNY   79  55  43 NW13      29.77R
MARSHFIELD     MOSUNNY   82  54  36 VRB6G14   29.76R
PLYMOUTH       PTSUNNY   81  52  36 NW12      29.77R
TAUNTON        MOSUNNY   81  50  33 VRB7      29.77R
NEW BEDFORD    CLOUDY    81  57  43 W9        29.76S
$$

MAZALL-232300-
CAPE COD AND THE ISLANDS

CITY           SKY/WX    TMP DP  RH WIND       PRES   REMARKS
FALMOUTH       CLOUDY    75  68  78 SW9       29.78S
HYANNIS        CLOUDY    78  69  73 W12       29.75S
CHATHAM        CLOUDY    76  73  91 SW6       29.77S
PROVINCETOWN   CLOUDY    75  57  53 NW3       29.77S
NANTUCKET      MOSUNNY   73  70  90 W12       29.78R
MARTHAS VNYRD  PTSUNNY   76  66  71 W8        29.77S
$$

MAZALL-232300-
CENTRAL AND WESTERN MASSACHUSETTS

CITY           SKY/WX    TMP DP  RH WIND       PRES   REMARKS
WORCESTER      MOSUNNY   73  50  44 W12       29.83S
FITCHBURG      SUNNY     78  50  37 NW13      29.80F
ORANGE         SUNNY     75  50  41 W8        29.81F
SPRINGFIELD    MOSUNNY   78  50  37 NW12      29.80S
WESTFIELD      SUNNY     78  51  38 NW10      29.81S
NORTH ADAMS    SUNNY     72  51  47 W10       29.83R
PITTSFIELD     MOSUNNY   71  50  47 W9        29.84S
$$

RIZALL-232300-
RHODE ISLAND

CITY           SKY/WX    TMP DP  RH WIND       PRES   REMARKS
PROVIDENCE     CLOUDY    80  54  40 NW12      29.79R
NEWPORT        CLOUDY    79  58  48 NW7G23    29.78R
BLOCK ISLAND   CLOUDY    76  63  64 W10       29.80S
WESTERLY       MOSUNNY   80  54  40 VRB5      29.80R
$$

CTZALL-232300-
CONNECTICUT

CITY           SKY/WX    TMP DP  RH WIND       PRES   REMARKS
BRADLEY INTL   MOSUNNY   79  51  37 NW9       29.81S
HARTFORD       MOSUNNY   80  53  39 NW7       29.80S
BRIDGEPORT     MOSUNNY   81  54  39 W10       29.81S
DANBURY        SUNNY     78  51  38 VRB7      29.84S
GROTON         MOSUNNY   80  52  37 NW9       29.79R
NEW HAVEN      MOSUNNY   79  54  41 W8        29.81S
CHESTER        FAIR      77  54  44 VRB6      29.82R
MERIDEN        MOSUNNY   78  53  41 W5        29.81S
WILLIMANTIC    MOSUNNY   78  54  43 NW9       29.81S
OXFORD         MOSUNNY   75  55  49 NW5       29.85S
$$

MEZ002-015-021-024-NHZ003-005-008-011-012-014-VTZ005-008-232300-
NORTHERN NEW ENGLAND

CITY           SKY/WX    TMP DP  RH WIND       PRES   REMARKS
PORTLAND ME    MOSUNNY   77  50  38 W12       29.75R
BANGOR ME      MOSUNNY   78  49  35 W8        29.71R
CONCORD NH     MOSUNNY   77  52  41 W12       29.78S
MANCHESTER NH  MOSUNNY   78  49  35 NW10      29.77R
NASHUA NH      MOSUNNY   77  55  46 W9        29.79S
PORTSMOUTH NH  PTSUNNY   77  55  45 W6        29.75S
JAFFREY NH     SUNNY     74  53  48 W7        29.83S
KEENE NH         N/A    N/A N/A N/A MISG        N/A
BURLINGTON VT  PTSUNNY   74  50  42 NW9       29.78R
MT. WASHINGTON PTSUNNY   45  43  93 W46G54      N/A
$$

NYZ052-076-232300-
EASTERN NEW YORK

CITY           SKY/WX    TMP DP  RH WIND       PRES   REMARKS
ALBANY         MOSUNNY   75  51  43 W10       29.83S
NEW YORK CITY  PTSUNNY   81  56  42 NW15      29.82S
$$

ANZALL-232300-
MARINE OBSERVATIONS

STATION/POSITION TIME  TEMP    WIND        PRES    VSBY  WAVE
                       AIR SEA DIR/SP/G                  HT/PER
                 (UTC) (F)     (DEG/KT/KT) (MB)    (MI)  (FT/S)
BOSTON BUOY      2150   72 67  290/  8/ 10 1007.7R         1/ 9
BUZZARDS BAY     2100   72     240/ 13/ 14 1008.5R
NANTUCKET SOUND  2050   72 72  220/ 10/ 12 1007.8          1/ 3
MASS BAY-STELLWA 2104   71 62  280/ 10/ 10 1006.9R         2/ 8
ISLE OF SHOALS   2100   74     280/ 14/ 15 1007.2R
S OF BLOCK IS    NOT AVBL
$$

......................KEY.........................
  SKY/WX - SKY CONDITION/PRESENT WEATHER
  TMP    - TEMPERATURE IN FAHRENHEIT
  DWPT   - DEWPOINT IN FAHRENHEIT
  RH     - RELATIVE HUMIDITY IN PERCENT
  WIND   - DIRECTION AND SPEED IN MPH
  PRES   - MEAN SEA LEVEL PRESSURE IN INCHES OF HG
  WCI    - WIND CHILL INDEX
  VSB    - VISIBILITY IN MILES
  HX     - HEAT INDEX
  TC     - TEMPERATURE IN CELSIUS
  VRB    - VARIABLE WIND DIRECTION
  N/A    - NOT AVAILABLE




USA.gov is the U.S. government's official web portal to all federal, state and local government web resources and services.